When you browse on this site, cookies collect data to enhance your experience and personalize the content and advertising you see.
Visit our Privacy Policy to learn more. By continuing to use the site, you agree to this use of cookies and data.
  • In Hungary
  • List of Countries
  • For 7 days
  • Water Temperature
  • Weather Map
  • News
  • Weather Widgets
  • user-avatar
    Login

    Hourly Weather Lopatino

    Today, 16 October, Wednesday

    Time Temperature Precipitation Wind Pressure Humidity
    00:00 +7°C° 0 mm 3 mps 748 mmHg 85%
    01:00 +5°C° 0 mm 3 mps 748 mmHg 84%
    02:00 +5°C° 0 mm 4 mps 749 mmHg 82%
    03:00 +4°C° 0 mm 4 mps 749 mmHg 83%
    04:00 +4°C° 0 mm 4 mps 750 mmHg 83%
    05:00 +3°C° 0 mm 4 mps 750 mmHg 82%
    06:00 +1°C° 0 mm 4 mps 751 mmHg 82%
    07:00 +2°C° 0 mm 3 mps 751 mmHg 78%
    08:00 +3°C° 0 mm 3 mps 752 mmHg 75%
    09:00 +3°C° 0 mm 3 mps 752 mmHg 71%
    10:00 +4°C° 0 mm 3 mps 753 mmHg 66%
    11:00 +4°C° 0 mm 3 mps 753 mmHg 60%
    12:00 +6°C° 0 mm 2 mps 753 mmHg 55%
    13:00 +7°C° 0 mm 2 mps 753 mmHg 53%
    14:00 +7°C° 0 mm 2 mps 753 mmHg 51%
    15:00 +8°C° 0 mm 2 mps 753 mmHg 48%
    16:00 +7°C° 0 mm 2 mps 753 mmHg 52%
    17:00 +7°C° 0 mm 1 mps 753 mmHg 56%
    18:00 +6°C° 0 mm 1 mps 753 mmHg 60%
    19:00 +5°C° 0 mm 2 mps 753 mmHg 61%
    20:00 +5°C° 0 mm 2 mps 754 mmHg 63%
    21:00 +4°C° 0 mm 2 mps 754 mmHg 64%
    22:00 +4°C° 0 mm 2 mps 754 mmHg 65%
    23:00 +4°C° 0 mm 2 mps 754 mmHg 66%

    Tomorrow, 17 October, Thursday

    Time Temperature Precipitation Wind Pressure Humidity
    00:00 +4°C° 0 mm 2 mps 754 mmHg 67%
    01:00 +3°C° 0 mm 3 mps 754 mmHg 66%
    02:00 +3°C° 0 mm 3 mps 754 mmHg 66%
    03:00 +3°C° 0 mm 4 mps 754 mmHg 66%
    04:00 +3°C° 0 mm 3 mps 753 mmHg 68%
    05:00 +3°C° 0 mm 3 mps 753 mmHg 70%
    06:00 +3°C° 0 mm 2 mps 753 mmHg 72%
    07:00 +3°C° 0 mm 3 mps 753 mmHg 69%
    08:00 +4°C° 0 mm 4 mps 753 mmHg 67%
    09:00 +5°C° 0 mm 4 mps 753 mmHg 65%
    10:00 +7°C° 0 mm 5 mps 753 mmHg 61%
    11:00 +8°C° 0 mm 5 mps 752 mmHg 57%
    12:00 +9°C° 0 mm 5 mps 752 mmHg 53%
    13:00 +10°C° 0 mm 5 mps 751 mmHg 52%
    14:00 +10°C° 0 mm 5 mps 751 mmHg 51%
    15:00 +12°C° 0 mm 5 mps 751 mmHg 50%
    16:00 +10°C° 0 mm 5 mps 750 mmHg 54%
    17:00 +9°C° 0 mm 5 mps 750 mmHg 58%
    18:00 +8°C° 0 mm 4 mps 750 mmHg 62%
    19:00 +7°C° 0 mm 4 mps 749 mmHg 61%
    20:00 +7°C° 0 mm 5 mps 749 mmHg 61%
    21:00 +7°C° 0 mm 5 mps 749 mmHg 61%
    22:00 +7°C° 0 mm 5 mps 749 mmHg 63%
    23:00 +7°C° 0 mm 5 mps 748 mmHg 65%

    Day after tomorrow, 18 October, Friday

    Time Temperature Precipitation Wind Pressure Humidity
    00:00 +6°C° 0 mm 5 mps 748 mmHg 67%
    01:00 +6°C° 0 mm 4 mps 748 mmHg 73%
    02:00 +6°C° 0 mm 4 mps 747 mmHg 79%
    03:00 +6°C° 0 mm 4 mps 747 mmHg 84%
    04:00 +6°C° 0 mm 4 mps 746 mmHg 87%
    05:00 +6°C° 0 mm 4 mps 746 mmHg 89%
    06:00 +6°C° 0 mm 4 mps 746 mmHg 92%
    07:00 +7°C° 0 mm 5 mps 745 mmHg 89%
    08:00 +8°C° 0 mm 5 mps 745 mmHg 87%
    09:00 +9°C° 0 mm 5 mps 745 mmHg 84%
    10:00 +10°C° 0 mm 5 mps 745 mmHg 79%
    11:00 +13°C° 0 mm 5 mps 745 mmHg 75%
    12:00 +14°C° 0 mm 5 mps 745 mmHg 70%
    13:00 +15°C° 0 mm 5 mps 744 mmHg 69%
    14:00 +15°C° 0 mm 5 mps 744 mmHg 68%
    15:00 +15°C° 0 mm 5 mps 744 mmHg 67%
    16:00 +14°C° 0 mm 4 mps 744 mmHg 73%
    17:00 +13°C° 0 mm 3 mps 744 mmHg 79%
    18:00 +13°C° 0 mm 2 mps 744 mmHg 85%
    19:00 +12°C° 0 mm 2 mps 744 mmHg 86%
    20:00 +12°C° 0 mm 2 mps 744 mmHg 87%
    21:00 +12°C° 0 mm 2 mps 745 mmHg 88%
    22:00 +12°C° 0 mm 2 mps 745 mmHg 89%
    23:00 +12°C° 0 mm 2 mps 745 mmHg 90%

    19 October, Saturday

    Time Temperature Precipitation Wind Pressure Humidity
    00:00 +12°C° 0 mm 2 mps 745 mmHg 91%
    01:00 +12°C° 0 mm 2 mps 745 mmHg 89%
    02:00 +12°C° 0 mm 2 mps 745 mmHg 87%
    03:00 +12°C° 0 mm 2 mps 746 mmHg 86%
    04:00 +10°C° 0 mm 2 mps 746 mmHg 85%
    05:00 +10°C° 0 mm 2 mps 746 mmHg 85%
    06:00 +10°C° 0 mm 2 mps 746 mmHg 84%
    07:00 +10°C° 0 mm 2 mps 747 mmHg 83%
    08:00 +11°C° 0 mm 3 mps 747 mmHg 81%
    09:00 +11°C° 0 mm 3 mps 747 mmHg 80%
    10:00 +12°C° 0 mm 3 mps 747 mmHg 75%
    11:00 +13°C° 0 mm 3 mps 748 mmHg 71%
    12:00 +14°C° 0 mm 3 mps 748 mmHg 67%
    13:00 +14°C° 0 mm 3 mps 748 mmHg 67%
    14:00 +14°C° 0 mm 3 mps 748 mmHg 67%
    15:00 +14°C° 0 mm 3 mps 748 mmHg 67%
    16:00 +13°C° 0 mm 3 mps 748 mmHg 71%
    17:00 +13°C° 0 mm 2 mps 749 mmHg 75%
    18:00 +12°C° 0 mm 2 mps 749 mmHg 80%
    19:00 +12°C° 0 mm 2 mps 749 mmHg 81%
    20:00 +10°C° 0 mm 2 mps 750 mmHg 83%
    21:00 +11°C° 0 mm 1 mps 750 mmHg 85%
    22:00 +10°C° 0 mm 1 mps 750 mmHg 87%
    23:00 +10°C° 0 mm 1 mps 750 mmHg 89%

    20 October, Sunday

    Time Temperature Precipitation Wind Pressure Humidity
    00:00 +9°C° 0 mm 1 mps 751 mmHg 92%
    01:00 +10°C° 0 mm 1 mps 751 mmHg 91%
    02:00 +10°C° 0 mm 1 mps 751 mmHg 90%
    03:00 +10°C° 0 mm 1 mps 751 mmHg 89%
    04:00 +10°C° 0 mm 1 mps 752 mmHg 88%
    05:00 +9°C° 0 mm 1 mps 752 mmHg 88%
    06:00 +9°C° 0 mm 1 mps 752 mmHg 88%
    07:00 +10°C° 0 mm 1 mps 752 mmHg 85%
    08:00 +9°C° 0 mm 2 mps 752 mmHg 83%
    09:00 +10°C° 0 mm 2 mps 752 mmHg 80%
    10:00 +12°C° 0 mm 2 mps 753 mmHg 77%
    11:00 +12°C° 0 mm 2 mps 753 mmHg 73%
    12:00 +13°C° 0 mm 2 mps 753 mmHg 69%
    13:00 +14°C° 0 mm 2 mps 753 mmHg 68%
    14:00 +14°C° 0 mm 2 mps 753 mmHg 68%
    15:00 +14°C° 0 mm 2 mps 753 mmHg 68%
    16:00 +13°C° 0 mm 2 mps 753 mmHg 70%
    17:00 +13°C° 0 mm 2 mps 753 mmHg 73%
    18:00 +12°C° 0 mm 2 mps 753 mmHg 76%
    19:00 +12°C° 0 mm 2 mps 753 mmHg 79%
    20:00 +10°C° 0 mm 2 mps 753 mmHg 82%
    21:00 +9°C° 0 mm 3 mps 753 mmHg 84%
    22:00 +9°C° 0 mm 3 mps 753 mmHg 85%
    23:00 +9°C° 0 mm 3 mps 753 mmHg 86%

    21 October, Monday

    Time Temperature Precipitation Wind Pressure Humidity
    00:00 +8°C° 0 mm 3 mps 753 mmHg 88%
    01:00 +8°C° 0 mm 3 mps 753 mmHg 89%
    02:00 +8°C° 0 mm 3 mps 753 mmHg 90%
    03:00 +8°C° 0 mm 3 mps 753 mmHg 91%
    04:00 +8°C° 0 mm 3 mps 753 mmHg 92%
    05:00 +7°C° 0 mm 3 mps 753 mmHg 93%
    06:00 +7°C° 0 mm 3 mps 753 mmHg 93%
    07:00 +8°C° 0 mm 3 mps 753 mmHg 89%
    08:00 +9°C° 0 mm 3 mps 752 mmHg 85%
    09:00 +10°C° 0 mm 4 mps 752 mmHg 81%
    10:00 +12°C° 0 mm 4 mps 752 mmHg 76%
    11:00 +13°C° 0 mm 4 mps 752 mmHg 71%
    12:00 +14°C° 0 mm 4 mps 752 mmHg 66%
    13:00 +15°C° 0 mm 4 mps 752 mmHg 64%
    14:00 +15°C° 0 mm 5 mps 751 mmHg 63%
    15:00 +15°C° 0 mm 5 mps 751 mmHg 61%
    16:00 +14°C° 0 mm 4 mps 751 mmHg 66%
    17:00 +13°C° 0 mm 4 mps 750 mmHg 70%
    18:00 +12°C° 0 mm 3 mps 750 mmHg 75%
    19:00 +12°C° 0 mm 4 mps 750 mmHg 75%
    20:00 +12°C° 0 mm 4 mps 750 mmHg 75%
    21:00 +12°C° 0 mm 4 mps 749 mmHg 75%
    22:00 +11°C° 0 mm 4 mps 749 mmHg 75%
    23:00 +10°C° 0 mm 5 mps 749 mmHg 75%
    Show more